Flag for U.S.A. Weather past 2 weeks in Spokane, Washington, U.S.A.

Now
75 °F

Sunny.


Feels Like: 78 °F
Forecast: 54 / 74 °F
Wind: 9 mph from North

Location: Felts Field

Current Time: Aug 22, 2014 at 3:30:40 PM

Latest Report: Aug 22, 2014 at 2:53 PM


Visibility: 10 mi

Pressure: 29.96 "Hg

Humidity: 42%

Dew point: 50 °F

Location of SpokaneLocation

Historic Weather in Spokane — Graph

°F

Spokane temperature yesterday

Maximum temperature yesterday: 80 °F (at 2:53 PM)
Minimum temperature yesterday: 57 °F (at 3:53 AM)
Average temperature yesterday: 67 °F

Past Weeks' High & Low Weather Summary

 TemperatureHumidityPressure
High99 °F (Aug 11, 4:53 PM)94% (Aug 12, 10:53 PM)30.12 "Hg (Aug 12, 10:53 PM)
Low54 °F (Aug 9, 5:53 AM)5% (Aug 11, 2:53 PM)29.60 "Hg (Aug 19, 4:53 PM)
Average72 °F52%29.92 "Hg
* Reported Aug 7 1:53 PM — Aug 22 1:53 PM, Spokane, Weather by CustomWeather, © 2014

Note: Actual official high and low records may vary slightly from our data, if they occured in-between our weather recording intervals... More about our weather records

Advertising

Spokane weather history for previous 24 hours

 ConditionsComfort  
Time TempWeatherWind HumidityBarometerVisibility
1:53 PM
Aug 22
73 °FScattered clouds.9 mph44%29.97 "Hg10 mi
12:53 PM71 °FScattered clouds.3 mph49%29.98 "Hg10 mi
11:53 AM67 °FPartly sunny.No wind61%29.99 "Hg10 mi
10:53 AM63 °FPartly sunny.No wind70%29.99 "Hg10 mi
9:53 AM61 °FScattered clouds.3 mph81%29.98 "Hg10 mi
8:53 AM58 °FLight rain. Partly sunny.5 mph87%29.98 "Hg10 mi
7:53 AM59 °FThunderstorms. Partly sunny.No wind75%29.97 "Hg10 mi
6:53 AM57 °FThundershowers. Partly cloudy.No wind81%29.93 "Hg10 mi
5:53 AM54 °FPassing clouds.No wind86%29.91 "Hg10 mi
4:53 AM55 °FPassing clouds.No wind83%29.91 "Hg10 mi
3:53 AM56 °FClear.No wind84%29.90 "Hg10 mi
2:53 AM58 °FClear.3 mph81%29.90 "Hg10 mi
1:53 AM60 °FPassing clouds.No wind75%29.89 "Hg10 mi
12:53 AM59 °FClear.No wind78%29.90 "Hg10 mi
11:53 PM
Aug 21
62 °FClear.3 mph67%29.90 "Hg10 mi
10:53 PM62 °FPassing clouds.No wind73%29.90 "Hg10 mi
9:53 PM65 °FPassing clouds.5 mph63%29.90 "Hg10 mi
8:53 PM65 °FClear.No wind70%29.90 "Hg10 mi
7:53 PM69 °FThunderstorms. Broken clouds.7 mph59%29.88 "Hg10 mi
6:53 PM77 °FPartly sunny.8 mph39%29.85 "Hg10 mi
5:53 PM80 °FSunny.3 mph32%29.85 "Hg10 mi
4:53 PM80 °FScattered clouds.6 mph30%29.86 "Hg10 mi
3:53 PM80 °FScattered clouds.No wind28%29.87 "Hg10 mi
Weather by CustomWeather, © 2014

See weather overviewHow to use our weather pages